Location: Boss Branch
(32.3799°N, 97.2508°W)
Time: 00:24:15
(UTC+00:00)

Vanguard 1 Rocket - Visible Passes

Search period start: 07 December 2025 00:00
Search period end: 17 December 2025 00:00
Orbit: 651 x 4216 km, 34.3° (Epoch: 06 December)

Date Brightness Start Highest point End Pass type
(mag) Time Alt. Az. Time Alt. Az. Time Alt. Az.
07 Dec 9.6 12:06:45 10° S 12:08:41 12° SE 12:10:39 10° ESE visible
08 Dec 12.5 00:22:15 10° SW 00:25:26 10° SW 00:28:45 10° SSW visible
09 Dec 9.2 12:05:49 10° SSW 12:09:03 19° SSE 12:12:23 10° E visible
11 Dec 8.5 12:05:34 10° SSW 12:09:32 29° SSE 12:13:29 10° E visible
12 Dec 9.4 10:54:48 10° S 10:57:35 15° SSE 11:00:08 10° ESE visible
13 Dec 7.8 12:05:39 10° SW 12:10:04 41° SSE 12:14:21 10° E visible
14 Dec 8.8 10:56:46 20° S 10:58:09 23° SSE 11:01:41 10° E visible
15 Dec 7.2 12:06:13 11° WSW 12:10:40 58° SSE 12:15:04 10° E visible
16 Dec 8.1 10:58:21 33° SSE 10:58:45 34° SSE 11:02:46 10° E visible
